sat.trackr.live / text

‹ back to catalog

GEESAT-5 10

NORAD 65559 · 2025-201K

PAYLOAD ACTIVE UNKNOWN

§ Identity

Operator
Country
PRC
Launch date
2025-09-08
Launch site
YSLA
Launch vehicle
Mass (kg)
RCS (m²)

External: N2YO · Heavens-Above · Gunter

§ Orbital elements

Epoch: 2026-09-20T09:49:16.885344Z

Period
97.01 min
Inclination
49.9840°
Eccentricity
0.0007761
Mean motion
14.84396958 rev/d
Perigee alt
610.1 km
Apogee alt
620.9 km
Semi-major
6,993.6 km
B*
1.2865e-4
RAAN
316.9513°
Arg perigee
290.7127°
Mean anomaly
69.2979°
Rev number
5,594

§ Raw data

GEESAT-5 101 65559U 25201K   26263.40922321  .00000864  00000+0  12865-3 0  99942 65559  49.9840 316.9513 0007761 290.7127  69.2979 14.84396958 55945

JSON: /api/v1/satellites/65559 · /tle

For live sub-satellite position, see the globe view (requires WebGL).

§ Visibility from observer

Set your observer location to see the next 7 days of passes ≥ 10°. The values pass through the URL so the page stays shareable.

No JS? Fill the form by hand. The geolocation button needs JavaScript.